Content
SEND FEEDBACK

Daily
Averages
Monthly
Summary
United States of America

EAST CARONDELET, ILLINOIS


Home > North America > United States > Illinois
Elevation: 400 feet     Latitude: 38 34N     Longitude: 090 13W

WEATHER
 
SELECT A DAY
Number of Records: 189,064;   Date Range: 1/1/95 - 10/20/14
 
SHARE

PRINT THIS DATA

[ ← Previous Day ]
WEATHER ALMANAC - FEBRUARY 6, 2013
[ Next Day → ]
[ °C ]   °F
Weather ElementAverageHighLow
Temperature39.5 °F51.1 °F (2:53 pm)26.1 °F (6:53 am)
Dewpoint29.4 °F32 °F (2:53 pm)23 °F (6:53 am)
Humidity69 %92 % (4:53 am)48 % (1:53 pm)
Barometer30.17 in30.27 in (10:53 am)30.07 in (11:53 pm)
Wind Speed5.7 mph12.7 mph (6:53 pm)
Weather ElementAverage
Visibility9.1 mi
Wind DirectionESE (99.6 °)

Weather ElementTotal
Precipitation---
Heating Degree Days26.4 (Base 65)
Averaged from 23 records on February 6, 2013
WEATHER CONDITIONS BREAKOUT
WIND DIRECTION BREAKOUT
WEATHER BY HOUR - FEBRUARY 6, 2013
[ °C ]   °F
Local TimeTemperatureDewpointHumidityBarometerVisibilityWind DirectionWind SpeedGust SpeedPrecipitationEventsConditions
1:53 AM32.0 °F27.0 °F82 %30.17 in10.0 miNE (40°)4.6 mphClear
2:53 AM32.0 °F27.0 °F82 %30.16 in9.0 miCalmClear
3:53 AM30.0 °F26.1 °F85 %30.18 in9.0 miCalmClear
4:53 AM28.0 °F26.1 °F92 %30.19 in7.0 miCalmClear
5:53 AM28.0 °F25.0 °F88 %30.21 in6.0 miCalmClear
6:53 AM26.1 °F23.0 °F88 %30.21 in5.0 miCalmClear
7:53 AM28.9 °F27.0 °F92 %30.22 in6.0 miCalmClear
8:53 AM36.0 °F30.0 °F79 %30.24 in8.0 miSouth (170°)3.5 mphClear
9:53 AM39.9 °F28.9 °F65 %30.25 in10.0 miSE (140°)9.2 mphClear
10:53 AM43.0 °F30.0 °F60 %30.27 in10.0 miSSE (150°)8.1 mphClear
11:53 AM46.0 °F30.9 °F56 %30.24 in10.0 miSE (140°)8.1 mphClear
12:53 PM48.9 °F30.9 °F50 %30.20 in10.0 miSE (140°)9.2 mphClear
1:53 PM50.0 °F30.9 °F48 %30.16 in10.0 miESE (120°)10.4 mphClear
2:53 PM51.1 °F32.0 °F48 %30.14 in10.0 miSE (130°)11.5 mphClear
3:53 PM51.1 °F32.0 °F48 %30.13 in10.0 miSE (130°)10.4 mphClear
4:53 PM46.0 °F32.0 °F58 %30.13 in10.0 miSSE (150°)6.9 mphClear
5:53 PM44.1 °F30.9 °F60 %30.13 in10.0 miSE (130°)5.8 mphClear
6:53 PM44.1 °F30.9 °F60 %30.10 in10.0 miESE (120°)12.7 mphClear
7:53 PM42.1 °F30.9 °F65 %30.11 in10.0 miSSE (150°)6.9 mphClear
8:53 PM42.1 °F30.9 °F65 %30.11 in10.0 miSSE (150°)8.1 mphClear
9:53 PM41.0 °F30.9 °F67 %30.11 in10.0 miSSE (150°)5.8 mphClear
10:53 PM39.0 °F32.0 °F76 %30.09 in10.0 miSE (140°)5.8 mphClear
11:53 PM39.0 °F30.9 °F73 %30.07 in10.0 miSE (140°)4.6 mphClear
Hourly data recorded from KCPS, located miles away from East Carondelet, Illinois







STORIES FROM OUR PARTNERS